Volver al catálogo

COSMOS 2251 DEB

ActivoVLEO
NORAD 38208·DEBRIS·🇷🇺 Russia

Lanzado Jun 16, 1993 desde Plesetsk Cosmodrome

Loading…

Próximos Pases (próximas 24 horas)

TLE

ActualizadoSource: Space-Track

Época: Sep 14, 2026, 05:19 UTC

1 38208U 93036BSY 26257.22193796  .00012570  00000-0  11734-2 0  9996
2 38208  73.9982 246.8592 0009860 276.0155  98.0226 14.94195748752616

Sigue COSMOS 2251 DEB en tiempo real con AllMySat

Download on the App Store